EDT,Max TemperatureF,Mean TemperatureF,Min TemperatureF,Max Dew PointF,MeanDew PointF,Min DewpointF,Max Humidity, Mean Humidity, Min Humidity, Max Sea Level PressureIn, Mean Sea Level PressureIn, Min Sea Level PressureIn, Max VisibilityMiles, Mean VisibilityMiles, Min VisibilityMiles, Max Wind SpeedMPH, Mean Wind SpeedMPH, Max Gust SpeedMPH,PrecipitationIn, CloudCover, Events, WindDirDegrees
2013-4-1,71,62,53,55,46,34,100,63,27,29.96,29.83,29.76,10,10,7,17,5,22,0.00,4,Rain,273
2013-4-2,59,49,37,36,27,18,87,46,21,30.15,30.08,29.97,10,10,10,14,5,26,0.00,1,,323
2013-4-3,57,46,35,34,27,19,93,51,23,30.37,30.24,30.14,10,10,10,10,3,20,0.00,3,,34
2013-4-4,51,42,32,43,31,25,100,64,37,30.41,30.29,29.98,10,10,7,14,4,22,0.29,2,Rain,56
2013-4-5,60,51,42,46,42,34,100,80,36,30.00,29.89,29.77,10,9,4,17,9,28,0.27,4,Rain,340
2013-4-6,53,45,37,39,33,28,100,62,38,30.34,30.24,30.01,10,10,10,17,5,25,0.00,0,,38
2013-4-7,71,52,33,50,40,34,100,68,33,30.33,30.23,30.12,10,10,7,14,3,21,0.00,0,,178
2013-4-8,78,64,51,57,53,48,94,67,39,30.17,30.12,30.05,10,10,4,14,10,21,0.00,1,,218
2013-4-9,84,73,62,61,57,54,83,62,35,30.15,30.10,30.03,10,10,10,,,,0.00,0,,-1
2013-4-10,89,76,62,61,58,55,82,57,33,30.07,30.00,29.91,10,10,10,,,,0.00,0,,-1
2013-4-11,84,73,62,64,59,55,83,64,40,29.98,29.90,29.83,10,10,10,,,,0.00,0,,-1
2013-4-12,78,73,68,70,66,64,94,83,65,29.85,29.74,29.63,10,10,2,,,,0.39,4,Rain-Thunderstorm,-1
2013-4-13,69,61,53,66,48,39,88,64,42,30.00,29.91,29.69,10,10,10,13,6,20,0.00,3,,124
2013-4-14,75,60,46,52,44,36,100,61,24,30.16,30.08,30.01,10,9,1,4,1,,0.00,0,,320
2013-4-15,68,62,57,57,53,46,88,72,63,30.26,30.18,30.11,10,10,7,,,,0.00,7,Rain-Thunderstorm,-1
2013-4-16,73,66,59,61,56,54,88,71,57,30.32,30.27,30.23,10,10,10,,,,0.00,5,,-1
2013-4-17,84,70,57,63,60,55,100,74,48,30.25,30.19,30.12,10,9,2,10,8,,0.00,2,,225
2013-4-18,78,70,62,61,59,55,94,69,44,30.25,30.18,30.09,10,9,4,14,5,20,0.03,3,,140
2013-4-19,84,74,64,68,65,61,100,77,54,30.09,29.92,29.79,10,10,5,28,11,34,0.28,5,Rain,177
2013-4-20,66,57,48,64,48,34,100,76,39,30.29,30.06,29.82,10,10,7,21,6,28,0.32,3,Rain-Thunderstorm,281
2013-4-21,55,48,42,46,36,30,100,61,41,30.56,30.49,30.29,10,10,1,18,6,25,0.00,0,,35
2013-4-22,55,48,42,50,44,34,100,81,66,30.52,30.39,30.28,10,8,3,21,9,29,0.03,5,Rain,20
2013-4-23,57,50,42,50,47,43,100,86,67,30.27,30.20,30.15,10,7,2,16,10,24,0.01,6,Rain,7
2013-4-24,75,57,39,59,51,39,100,77,47,30.18,30.09,29.96,10,8,0,16,5,23,0.00,3,Fog,186
2013-4-25,64,54,44,59,44,28,93,63,27,30.32,30.20,30.02,10,10,10,15,6,23,0.00,3,,23
2013-4-26,69,53,37,46,40,36,100,65,28,30.43,30.38,30.30,10,10,1,10,2,16,0.00,0,,52
2013-4-27,69,56,42,48,41,36,100,62,31,30.42,30.37,30.33,10,10,7,10,2,16,0.00,0,,85
2013-4-28,66,52,39,57,47,39,100,75,49,30.33,30.25,30.15,10,10,7,14,3,20,0.03,2,Rain,100
2013-4-29,66,62,57,64,60,57,100,93,88,30.16,30.07,30.01,10,8,0,9,5,,0.80,7,Fog-Rain,127
2013-4-30,68,62,57,61,58,55,100,89,68,30.16,30.10,30.03,10,5,0,12,4,20,0.00,8,Fog-Rain,360